Location: Unspecified
(0.0000°N, 0.0000°E)
Time: 11:33:29
(UTC+00:00)

Explorer 11/Cluster Stage 4 - Pass Details

Date: 04 October 2020
Orbit: 467 x 1258 km, 28.8° (Epoch: 28 October)

Event Time Altitude Azimuth Distance (km) Brightness Sun altitude
Rises 05:23:51 0° 308° (NW) 3,839 - -6.2°
Exits shadow 05:23:54 - 308° (NW) 3,822 9.6 -6.2°
Reaches altitude 10° 05:26:30 10° 312° (NW) 2,978 9.1 -5.5°
Maximum altitude 05:34:00 62° 31° (NNE) 1,359 8.0 -3.7°
Drops below altitude 10° 05:42:09 10° 110° (ESE) 3,230 11.4 -1.6°
Sets 05:45:07 0° 113° (ESE) 4,181 12.0 -0.9°
